Regional Weather Roundup
Issued by NWS Sioux Falls, SD

Home | Current Version | Previous Version | Graphics & Text | Print | Product List | Glossary Off
Versions: 1 2 3 4 5 6 7 8 9 10 11 12 13 14 15 16 17 18 19 20 21 22 23 24 25 26 27 28 29 30 31 32 33 34 35 36 37 38 39 40 41 42 43 44 45 46 47 48 49 50

722
ASUS43 KFSD 231802
RWRFSD

WEATHER ROUNDUP FOR SE SOUTH DAKOTA/SW MINNESOTA/NW IOWA
NATIONAL WEATHER SERVICE SIOUX FALLS SD
1200 PM CST THU FEB 23 2017

NOTE: "FAIR" INDICATES FEW OR NO CLOUDS BELOW 12,000 FEET WITH NO
SIGNIFICANT WEATHER AND OR OBSTRUCTIONS TO VISIBILITY.


SDZ038>040-050-052>070-231900-
SOUTHEAST SOUTH DAKOTA

CITY           SKY/WX    TMP DP  RH WIND       PRES   REMARKS
BROOKINGS      CLOUDY    29  24  82 NE15      29.91R WCI  18
CHAMBERLAIN    FLURRIES  32  26  80 NE14G20   29.91F WCI  22
6HR MIN TEMP:  30; 6HR MAX TEMP:  32;

HURON          CLOUDY    32  24  72 NE16      29.94R WCI  21
6HR MIN TEMP:  28; 6HR MAX TEMP:  32;

MADISON        CLOUDY    28  28 100 NE18      29.90S WCI  16
MITCHELL       CLOUDY    33  25  72 NE15      29.92F WCI  23
6HR MIN TEMP:  29; 6HR MAX TEMP:  33;

SIOUX FALLS    LGT SNOW  32  26  78 NE16      29.87F WCI  21
6HR MIN TEMP:  32; 6HR MAX TEMP:  33; 6HR PCP: TRACE;

WINNER         SNOW      30  26  85 NE18      29.87F VSB 1/2 WCI  18
YANKTON        CLOUDY    32  27  80 N17       29.83F WCI  21
$$

MNZ071-072-080-081-089-090-097-098-231900-
SOUTHWEST MINNESOTA

CITY           SKY/WX    TMP DP  RH WIND       PRES   REMARKS
FAIRMONT       CLOUDY    33  29  85 NE13      29.84F WCI  24
JACKSON          N/A     32  28  86 NE16      29.86R WCI  21
LUVERNE        CLOUDY    32  25  74 NE16      29.87S WCI  21
MARSHALL       CLOUDY    31  27  85 N9        29.95R WCI  23
6HR MIN TEMP:  29; 6HR MAX TEMP:  31;

MONTEVIDEO     CLOUDY    32  27  80 NE13      29.97S WCI  22
PIPESTONE      MOSUNNY   30  23  74 NE15      29.88S WCI  19
REDWOOD FALLS  PTSUNNY   33  24  69 N9        29.93R WCI  25
TRACY          CLOUDY    32  28  86 N14       29.93R WCI  22
WINDOM         CLOUDY    32  27  80 N15       29.87S WCI  22
WORTHINGTON    CLOUDY    31  26  82 N20       29.86S WCI  19
$$

IAZ001>003-012>014-020>022-031-032-NEZ013-014-SDZ071-231900-
NORTHWEST IOWA

CITY           SKY/WX    TMP DP  RH WIND       PRES   REMARKS
CHEROKEE       CLOUDY    35  31  87 NE9G22    29.80F WCI  27
DENISON        CLOUDY    37  34  87 NE18G26   29.71F
ESTHERVILLE    CLOUDY    32  30  92 NE18      29.84S WCI  20
LE MARS        CLOUDY    34  30  86 NE15G22   29.81F WCI  24
ORANGE CITY    CLOUDY    34  30  86 NE9G17    29.82S WCI  26
SHELDON        CLOUDY    32  32 100 NE20      29.82R WCI  20
SIOUX CITY     CLOUDY    37  30  75 NE20      29.78F
6HR MIN TEMP:  37; 6HR MAX TEMP:  37;

SPENCER        CLOUDY    33  30  88 NE20      29.82F WCI  21
6HR MIN TEMP:  32; 6HR MAX TEMP:  34;

STORM LAKE     CLOUDY    34  32  93 NE21      29.78S WCI  22
$$

ABBREVIATIONS USED IN REMARKS
   TC - TEMPERATURE IN CELSIUS
  WCI - WIND CHILL INDEX
   HX - HEAT INDEX
  VSB - VISIBILITY





USA.gov is the U.S. government's official web portal to all federal, state and local government web resources and services.